FW1256 Weather Reports


time (UTC)temp
C
wind
direction
speed
KPH
gust
KPH
rain 1hr
cm
rain 24hr
cm
rain mn
cm
humidity
%
barometer
mb
20260504081622 11 8 0.0 3.2 0.00 0.00 0.00 82 1006.1
20260504081118 11 331 0.0 4.8 0.00 0.00 0.00 82 1006.3
20260504080615 11 69 0.0 4.8 0.00 0.00 0.00 81 1006.4
20260504080111 11 32 0.0 4.8 0.00 0.00 0.00 81 1006.5
20260504050427 11 66 1.6 4.8 0.00 0.00 0.00 78 1007.6
20260504045924 11 261 0.0 4.8 0.00 0.00 0.00 78 1007.7
20260504045420 11 352 0.0 3.2 0.00 0.00 0.00 74 1007.8
20260504044916 12 97 0.0 1.6 0.00 0.00 0.00 74 1007.9
20260504044414 12 0 0.0 1.6 0.00 0.00 0.00 73 1008.0
20260504043911 12 81 0.0 1.6 0.00 0.00 0.00 73 1008.0
20260504043408 12 90 1.6 3.2 0.00 0.00 0.00 72 1008.1
20260504042906 12 26 0.0 3.2 0.00 0.00 0.00 72 1008.1
20260504042402 12 90 0.0 3.2 0.00 0.00 0.00 71 1007.9
20260504041858 12 75 1.6 3.2 0.00 0.00 0.00 72 1008.0
20260504041354 12 345 0.0 1.6 0.00 0.00 0.00 71 1008.0
20260504040850 12 12 0.0 4.8 0.00 0.00 0.00 71 1008.1
20260504040348 12 0 0.0 1.6 0.00 0.00 0.00 71 1008.1
20260504035844 12 0 0.0 0.0 0.00 0.00 0.00 70 1008.0
20260504035342 12 0 0.0 3.2 0.00 0.00 0.00 71 1008.2
20260504034838 13 35 0.0 1.6 0.00 0.00 0.00 70 1008.1
20260504034336 13 15 0.0 3.2 0.00 0.00 0.00 70 1008.1
20260504033833 13 7 0.0 3.2 0.00 0.00 0.00 70 1008.1
20260504033331 13 15 0.0 0.0 0.00 0.00 0.00 69 1008.2
20260504032827 13 286 0.0 3.2 0.00 0.00 0.00 68 1008.3
20260504032325 13 20 0.0 1.6 0.00 0.00 0.00 68 1008.3
20260504031821 13 15 0.0 0.0 0.00 0.00 0.00 67 1008.3
20260504031319 14 15 1.6 1.6 0.00 0.00 0.00 65 1008.3
20260504030815 15 90 0.0 0.0 0.00 0.00 0.00 64 1008.3
20260504030312 15 90 0.0 0.0 0.00 0.00 0.00 63 1008.3
20260504025808 15 90 1.6 3.2 0.00 0.00 0.00 63 1008.2
20260504025305 15 15 0.0 0.0 0.00 0.00 0.00 63 1008.4
20260504024801 14 15 0.0 0.0 0.00 0.00 0.00 64 1008.3
20260504024258 14 15 0.0 0.0 0.00 0.00 0.00 65 1008.3
20260504023755 15 0 0.0 1.6 0.00 0.00 0.00 64 1008.5
20260504023252 15 90 0.0 0.0 0.00 0.00 0.00 64 1008.2
20260504022747 14 90 0.0 0.0 0.00 0.00 0.00 65 1008.4
20260504022244 15 90 0.0 1.6 0.00 0.00 0.00 65 1008.5
20260504021741 14 20 0.0 0.0 0.00 0.00 0.00 65 1008.4
20260504021238 15 20 0.0 0.0 0.00 0.00 0.00 65 1008.3
20260504020735 15 20 0.0 0.0 0.00 0.00 0.00 64 1008.2
20260504020232 15 0 0.0 0.0 0.00 0.00 0.00 64 1008.3
20260504015728 15 0 0.0 0.0 0.00 0.00 0.00 63 1008.3
20260504015224 15 0 0.0 0.0 0.00 0.00 0.00 63 1008.1
20260504014720 15 0 0.0 0.0 0.00 0.00 0.00 63 1008.2
20260504014217 15 0 0.0 0.0 0.00 0.00 0.00 64 1008.1
20260504013715 15 0 0.0 0.0 0.00 0.00 0.00 65 1008.2
20260504013212 15 0 0.0 0.0 0.00 0.00 0.00 64 1008.3
20260504012709 15 0 0.0 0.0 0.00 0.00 0.00 63 1008.1
20260504012207 16 75 0.0 0.0 0.00 0.00 0.00 61 1008.2
20260504011703 16 75 0.0 3.2 0.00 0.00 0.00 58 1008.0
20260504011200 16 345 0.0 0.0 0.00 0.00 0.00 59 1007.9
20260504010656 16 345 0.0 0.0 0.00 0.00 0.00 58 1007.9
20260504010151 16 345 0.0 0.0 0.00 0.00 0.00 57 1007.7
20260504005649 17 345 0.0 1.6 0.00 0.00 0.00 55 1008.0
20260504005145 17 90 0.0 0.0 0.00 0.00 0.00 55 1007.9
20260504004643 17 90 0.0 0.0 0.00 0.00 0.00 53 1007.9
20260504004140 18 90 0.0 0.0 0.00 0.00 0.00 52 1007.8
20260504003637 18 78 0.0 0.0 0.00 0.00 0.00 52 1007.9
20260504003133 18 78 0.0 3.2 0.00 0.00 0.00 51 1008.3
20260504002630 18 270 0.0 0.0 0.00 0.00 0.00 51 1007.9
20260504002128 18 303 3.2 4.8 0.00 0.00 0.00 49 1007.9
20260504001626 19 286 0.0 11.3 0.00 0.00 0.00 49 1008.0
20260504001121 19 345 0.0 4.8 0.00 0.00 0.00 49 1008.0
20260504000619 20 264 0.0 4.8 0.00 0.00 0.00 48 1007.7
20260504000116 20 352 11.3 11.3 0.00 0.00 0.00 46 1007.9
20260503235614 20 261 0.0 4.8 0.00 0.00 0.00 47 1007.7
20260503235110 20 265 6.4 16.1 0.00 0.00 0.00 45 1007.9
20260503234609 20 278 6.4 9.7 0.00 0.00 0.00 48 1007.9
20260503234106 20 270 1.6 4.8 0.00 0.00 0.00 49 1007.9
20260503233603 20 0 3.2 12.9 0.00 0.00 0.00 48 1007.8
20260503233058 21 315 8.0 11.3 0.00 0.00 0.00 45 1007.9
20260503232556 20 270 1.6 4.8 0.00 0.00 0.00 49 1008.1
20260503232053 20 337 0.0 8.0 0.00 0.00 0.00 48 1008.1
20260503231551 20 274 0.0 6.4 0.00 0.00 0.00 46 1008.1
20260503231047 20 261 0.0 12.9 0.00 0.00 0.00 49 1008.2
20260503230544 20 295 6.4 6.4 0.00 0.00 0.00 49 1008.2
20260503230041 20 178 6.4 14.5 0.00 0.00 0.00 47 1008.4
20260503225538 20 283 3.2 9.7 0.00 0.00 0.00 48 1008.4
20260503225039 20 191 3.2 12.9 0.00 0.00 0.00 47 1008.0
20260503224537 21 305 4.8 6.4 0.00 0.00 0.00 44 1008.3
20260503224034 21 319 11.3 11.3 0.00 0.00 0.00 44 1008.3
20260503223532 21 303 6.4 9.7 0.00 0.00 0.00 43 1008.2
20260503223027 21 303 4.8 8.0 0.00 0.00 0.00 46 1008.2
20260503222526 21 253 4.8 9.7 0.00 0.00 0.00 43 1008.2
20260503222024 21 162 1.6 11.3 0.00 0.00 0.00 45 1008.3
20260503221522 21 228 3.2 6.4 0.00 0.00 0.00 46 1008.3
20260503221019 21 261 3.2 20.9 0.00 0.00 0.00 44 1008.3
20260503220515 21 228 0.0 4.8 0.00 0.00 0.00 43 1008.4
20260503220012 21 212 3.2 4.8 0.00 0.00 0.00 43 1008.6
20260503215509 21 254 1.6 11.3 0.00 0.00 0.00 44 1008.8
20260503215006 21 283 6.4 9.7 0.00 0.00 0.00 43 1008.4
20260503214504 20 67 4.8 6.4 0.00 0.00 0.00 43 1008.4
20260503214000 20 217 0.0 11.3 0.00 0.00 0.00 43 1008.6
20260503213459 20 266 3.2 4.8 0.00 0.00 0.00 44 1008.5
20260503212955 20 251 0.0 8.0 0.00 0.00 0.00 43 1008.6
20260503212453 20 180 3.2 4.8 0.00 0.00 0.00 41 1008.6
20260503211950 21 236 4.8 6.4 0.00 0.00 0.00 46 1008.7
20260503211447 20 154 1.6 6.4 0.00 0.00 0.00 42 1008.8
20260503210942 20 236 3.2 12.9 0.00 0.00 0.00 43 1008.8
20260503210439 19 141 4.8 6.4 0.00 0.00 0.00 47 1008.8
20260503205934 20 227 4.8 4.8 0.00 0.00 0.00 45 1008.7
20260503205431 20 277 0.0 6.4 0.00 0.00 0.00 45 1008.9
20260503204927 20 206 4.8 9.7 0.00 0.00 0.00 42 1008.9
20260503204425 20 230 4.8 9.7 0.00 0.00 0.00 42 1008.9
20260503203922 19 233 3.2 6.4 0.00 0.00 0.00 45 1008.9
20260503203419 18 206 6.4 8.0 0.00 0.00 0.00 45 1008.9
20260503202916 18 209 3.2 8.0 0.00 0.00 0.00 44 1008.8
20260503202414 18 90 0.0 6.4 0.00 0.00 0.00 44 1008.9
20260503201912 18 207 4.8 8.0 0.00 0.00 0.00 44 1009.2
20260503201409 18 221 3.2 9.7 0.00 0.00 0.00 46 1009.5
20260503200906 19 240 0.0 4.8 0.00 0.00 0.00 47 1009.3
20260503200402 19 174 1.6 11.3 0.00 0.00 0.00 43 1009.2
20260503195859 18 155 6.4 8.0 0.00 0.00 0.00 44 1009.1
20260503195356 18 294 1.6 8.0 0.00 0.00 0.00 45 1009.0
20260503194853 19 230 6.4 8.0 0.00 0.00 0.00 42 1009.5
20260503194349 19 225 4.8 9.7 0.00 0.00 0.00 45 1010.0
20260503193845 19 163 4.8 6.4 0.00 0.00 0.00 43 1010.2
20260503193341 19 227 4.8 9.7 0.00 0.00 0.00 41 1009.9
20260503192837 19 216 4.8 14.5 0.00 0.00 0.00 40 1009.5
20260503192333 19 211 4.8 6.4 0.00 0.00 0.00 45 1009.5
20260503191830 18 154 3.2 12.9 0.00 0.00 0.00 42 1009.9
20260503191327 18 142 4.8 12.9 0.00 0.00 0.00 43 1009.9
20260503190823 18 203 4.8 14.5 0.00 0.00 0.00 41 1009.4
20260503190321 18 255 6.4 20.9 0.00 0.00 0.00 43 1009.7
20260503185817 18 249 6.4 12.9 0.00 0.00 0.00 40 1009.8
20260503185313 19 221 0.0 11.3 0.00 0.00 0.00 46 1009.9
20260503184808 18 297 1.6 14.5 0.00 0.00 0.00 45 1009.9
20260503184304 17 218 3.2 9.7 0.00 0.00 0.00 46 1010.0
20260503183800 18 85 3.2 9.7 0.00 0.00 0.00 42 1010.2
20260503183258 17 216 0.0 8.0 0.00 0.00 0.00 43 1010.2
20260503182755 18 155 9.7 16.1 0.00 0.00 0.00 39 1010.3
20260503182254 18 135 3.2 11.3 0.00 0.00 0.00 44 1010.8
20260503181750 17 139 6.4 20.9 0.00 0.00 0.00 38 1010.9
20260503181247 19 115 11.3 12.9 0.00 0.00 0.00 40 1010.7
20260503180744 18 167 4.8 12.9 0.00 0.00 0.00 39 1010.9
20260503180242 18 164 6.4 17.7 0.00 0.00 0.00 40 1010.8
20260503175738 19 169 8.0 12.9 0.00 0.00 0.00 41 1011.2
20260503175237 18 138 4.8 14.5 0.00 0.00 0.00 46 1011.1
20260503174732 18 197 9.7 11.3 0.00 0.00 0.00 40 1011.4
20260503174231 18 181 9.7 19.3 0.00 0.00 0.00 40 1011.7
20260503173730 18 67 0.0 32.2 0.00 0.00 0.00 43 1011.8
20260503173227 18 145 6.4 17.7 0.00 0.00 0.00 42 1012.2
20260503172724 17 239 4.8 17.7 0.00 0.00 0.00 43 1012.5
20260503172221 18 157 9.7 14.5 0.00 0.00 0.00 44 1013.0
20260503171717 17 162 1.6 9.7 0.00 0.00 0.00 44 1012.6
20260503171215 17 180 4.8 11.3 0.00 0.00 0.00 46 1012.5
20260503170711 16 128 0.0 9.7 0.00 0.00 0.00 47 1013.0
20260503170208 16 294 0.0 9.7 0.00 0.00 0.00 46 1013.1
20260503160130 15 151 4.8 30.6 0.00 0.00 0.00 47 1013.9
20260503150600 14 326 4.8 4.8 0.00 0.00 0.00 52 1014.9
20260503130949 9 45 3.2 3.2 0.00 0.00 0.00 72 1016.5
20260503130447 9 352 0.0 3.2 0.00 0.00 0.00 72 1016.7
20260503110344 6 15 0.0 3.2 0.00 0.00 0.00 77 1016.3